Regional Weather Roundup
Issued by NWS

Home | Current Version | Previous Version | Graphics & Text | Print | Product List | Glossary On
Versions: 1 2 3 4 5 6 7 8 9 10 11 12 13 14 15 16 17 18 19 20 21 22 23 24 25 26 27 28 29 30 31 32 33 34 35 36 37 38 39 40 41 42 43 44 45 46 47 48 49 50
000
ASUS45 KSLC 041210
RWRUT
UTAH REGIONAL WEATHER ROUNDUP
NATIONAL WEATHER SERVICE SALT LAKE CITY UT
600 AM MDT TUE AUG 04 2015

UTZ001>011-023>025-041300-

NORTHERN UTAH

CITY           SKY/WX    TMP DP  RH WIND       PRES   REMARKS
BRIGHAM CITY   CLEAR     56  54  91 CALM      30.11R
HILL AFB       CLEAR     58  55  90 E14       30.11R
LOGAN          CLEAR     53  51  93 CALM      30.12R
OGDEN          CLEAR     59  54  83 S8        30.09S
PROVO AIRPORT  CLEAR     54  48  82 CALM      30.13S
SALT LAKE CITY CLEAR     60  53  77 S3        30.09R
VERNAL         CLEAR     54  48  80 NW5       30.15R
WENDOVER       CLEAR     63  52  67 SW5       30.08S
HEBER CITY     CLEAR     46  45  93 CALM      30.20S
WEST JORDAN    CLEAR     57  54  88 S5        30.11S

$$

UTZ012>022-026-027-041300-

SOUTHERN/CENTRAL UTAH

CITY           SKY/WX    TMP DP  RH WIND       PRES   REMARKS
BLANDING       CLEAR     57  48  72 N7        30.26S
BRYCE CANYON   PTCLDY    46  40  79 CALM      30.32S
CEDAR CITY     CLEAR     53  42  66 CALM      30.16R
DELTA          CLEAR     60  53  78 E9        30.10S
HANKSVILLE     CLEAR     59  55  88 CALM      30.11S
MILFORD        PTCLDY    53  44  71 S6        30.10S
MOAB/CYNLANDS  CLEAR     59  55  87 CALM      30.09R
PRICE          CLEAR     56  48  74 NE5       30.18R
ST GEORGE      SUNNY     73  39  29 CALM      29.97R
KANAB          CLEAR     61  45  55 E7        30.19R

$$

REGIONAL REPORTS     COLORADO/ARIZONA

CITY           SKY/WX    TMP DP  RH WIND       PRES   REMARKS
CRAIG, CO      FOG       45  44  97 CALM      30.21R VSB 1/4
GRAND JUNCTION CLEAR     59  49  69 NE5       30.13R
RIFLE          CLEAR     55  51  86 CALM      30.18R
MONTROSE       CLEAR     57  51  80 CALM      30.22R
CORTEZ         CLEAR     53  51  93 CALM      30.21R
PAGE, AZ       CLEAR     72  47  40 CALM      30.07R
GRAND CANYON   CLEAR     44  37  76 CALM      30.27R
KINGMAN        CLEAR     72  34  24 CALM      29.99R
FLAGSTAFF      CLEAR     51  39  63 SW5       30.30R

$$

REGIONAL REPORTS    NEVADA/IDAHO/WYOMING

CITY           SKY/WX    TMP DP  RH WIND       PRES   REMARKS
LAS VEGAS, NV  CLEAR     84  34  16 S8        29.82R
ELY            PTCLDY    55  41  59 S9        30.18S
ELKO           PTCLDY    56  41  57 CALM      30.08S
POCATELLO, ID  CLEAR     54  54 100 W3        30.08R
BURLEY         CLEAR     55  51  86 CALM      30.03R
EVANSTON, WY   PTCLDY    49  46  90 S6        30.24R
ROCK SPRINGS   MOCLDY    52  49  89 W22       30.18R
KEMMERER       CLEAR     50  48  93 W13G18    30.23R

$$


USA.gov is the U.S. government's official web portal to all federal, state and local government web resources and services.